{"data":{"norad_id":43623,"intl_designator":"2018-072B","name":"BEIDOU-3 M14 (C33)","alt_names":[],"object_type":"PAYLOAD","status":"ACTIVE","operator":null,"country":"PRC","launch_date":"2018-09-19","launch_site_code":"XICLF","launch_vehicle":null,"mission":null,"orbit_class":"UNKNOWN","rcs_meters":null,"size_class":null,"mass_kg":null,"dimensions":null,"purposes":["earth_obs","nav"],"wikipedia_slug":null,"has_3d_model":false,"image_url":null,"decayed_at":null,"tle_current":{"epoch":"2026-09-19T21:43:44.711040Z","epoch_age_seconds":65861,"freshness":"FRESH","line1":"1 43623U 18072B   26262.90537860 -.00000009  00000+0  00000+0 0  9990","line2":"2 43623  56.7136  59.5333 0003529  24.4495 335.5877  1.86231218 54417","mean_motion":1.86231218,"eccentricity":0.0003529,"inclination_deg":56.7136,"raan_deg":59.5333,"arg_perigee_deg":24.4495,"mean_anomaly_deg":335.5877,"bstar":0,"rev_number":5441,"period_min":773.23233744839,"perigee_km":21518.181699858,"apogee_km":21537.877872376,"semimajor_km":27906.166786117,"source":"CELESTRAK","updated_at":"2026-09-20T09:00:46.710027Z"}}}